Location: Monrovia
(34.7865°N, 86.7139°W)
Time: 00:42:58
(UTC+00:00)

Cosmos 1486 Rocket - Pass Details

Date: 14 July 2020
Orbit: 759 x 782 km, 74.1° (Epoch: 12 August)

Event Time Altitude Azimuth Distance (km) Brightness Sun altitude
Exits shadow 10:09:22 - 203° (SSW) 2,996 6.6 -7.1°
Reaches altitude 10° 10:11:08 10° 205° (SSW) 2,317 6.0 -6.8°
Maximum altitude 10:16:22 69° 288° (WNW) 827 4.1 -5.9°
Drops below altitude 10° 10:21:36 10° 12° (NNE) 2,316 7.2 -4.9°
Sets 10:24:00 0° 15° (NNE) 3,242 8.0 -4.5°
